Lexington Weather

Lexington, Massachusetts, USA

34°F
4/16/2021 9:59am 
  • Lexington Conditions: Snow, Mist, Overcast
  • Temperature: 33.8°F / 1.0°CColder 1.4°F than last hour.
  • Dew Point: 32.5°FDecreased 1.1°Fsince last hour.
  • Relative Humidity: 95%Increased 1.0% since last hour.
  • Wind: Calm, 10-min avg: Calm, gust: None
  • Barometer: 29.50 in Steady
  • Visibility: ½ mile
  • Snow Today: 0.3 in
  •   

Regional Weather Roundup
for Boston / Norton, MA

        
000
ASUS41 KBOX 151204
RWRBOX

REGIONAL WEATHER ROUNDUP
NATIONAL WEATHER SERVICE BOSTON/NORTON MA
800 AM EDT THU APR 15 2021

NOTE:  "FAIR" INDICATES FEW OR NO CLOUDS BELOW 12,000 FEET WITH NO 
SIGNIFICANT WEATHER AND/OR OBSTRUCTIONS TO VISIBILITY.

MAZALL-151300-
EASTERN MASSACHUSETTS
  
CITY           SKY/WX    TMP DP  RH WIND       PRES   REMARKS
BOSTON         PTSUNNY   49  36  61 SE9       29.88F                  
6HR MIN TEMP:  44; 6HR MAX TEMP:  49;                                

BEVERLY        NOT AVBL                                               
LAWRENCE       MOSUNNY   47  38  71 E5        29.89F                  
BEDFORD        PTSUNNY   48  39  71 E3        29.86S                  
BLUE HILL        N/A     45  34  65 SE9       29.84F                  
NORWOOD        CLOUDY    49  37  63 SE5       29.87S                  
MARSHFIELD     PTSUNNY   48  41  76 SE9       29.88F                  
PLYMOUTH       CLOUDY    48  35  60 SE7       29.87F                  
TAUNTON          N/A    N/A N/A N/A MISG      29.87S                  
NEW BEDFORD      N/A     48  38  68 SE9       29.87S                  
$$

MAZALL-151300-
CAPE COD AND THE ISLANDS
  
CITY           SKY/WX    TMP DP  RH WIND       PRES   REMARKS
FALMOUTH       NOT AVBL                                               
HYANNIS        CLOUDY    49  33  54 SE7       29.87F                  
CHATHAM        PTSUNNY   47  37  68 SE6       29.91S                  
PROVINCETOWN   MOSUNNY   47  38  71 MISG        N/A                   
NANTUCKET      CLOUDY    49  38  65 SE14      29.89S                  
MARTHAS VNYRD  CLOUDY    47  39  74 SE14      29.88S                  
$$
 
MAZALL-151300-
CENTRAL AND WESTERN MASSACHUSETTS
  
CITY           SKY/WX    TMP DP  RH WIND       PRES   REMARKS
WORCESTER      CLOUDY    45  39  79 SE6       29.83F                  
6HR MIN TEMP:  43; 6HR MAX TEMP:  45;                                

FITCHBURG      CLOUDY    47  40  76 E6        29.86S                  
ORANGE         CLOUDY    47  42  83 SE5       29.83F                  
SPRINGFIELD    CLOUDY    47  41  77 CALM      29.81S                  
WESTFIELD      CLOUDY    48  42  80 E5        29.81F                  
NORTH ADAMS    LGT RAIN  47  45  93 NE8       29.79S                  
PITTSFIELD     LGT RAIN  44  43  96 E5        29.77S FOG              
$$
 
RIZALL-151300-
RHODE ISLAND
  
CITY           SKY/WX    TMP DP  RH WIND       PRES   REMARKS
PROVIDENCE     CLOUDY    47  41  80 SE8       29.87F                  
6HR MIN TEMP:  46; 6HR MAX TEMP:  47;                                

NEWPORT        CLOUDY    45  39  79 SE9       29.86S                  
BLOCK ISLAND   CLOUDY    44  41  89 SE14      29.85F                  
SMITHFIELD     CLOUDY    46  41  82 SE7       29.85F                  
WESTERLY       CLOUDY    44  42  93 E7        29.85S                  
$$
 
CTZALL-151300-
CONNECTICUT
  
CITY           SKY/WX    TMP DP  RH WIND       PRES   REMARKS
BRADLEY INTL   CLOUDY    48  41  76 SE5       29.81F                  
6HR MIN TEMP:  47; 6HR MAX TEMP:  48; 6HR PCP: TRACE;                

HARTFORD       CLOUDY    49  41  74 VRB5      29.82S                  
BRIDGEPORT     CLOUDY    48  46  93 NE15      29.79S                  
DANBURY        CLOUDY    51  46  83 E7        29.79F                  
GROTON         CLOUDY    47  43  86 E13       29.83F                  
NEW HAVEN      CLOUDY    50  48  93 E10       29.79F FOG              
CHESTER        DRZL/FOG  46  46 100 E6G12     29.81  VSB 1            
MERIDEN        CLOUDY    47  44  90 CALM      29.81S                  
WILLIMANTIC    CLOUDY    46  40  79 VRB3      29.84S                  
OXFORD         LGT RAIN  45  45 100 E7        29.79F FOG              
$$

MEZ002-015-021-024-NHZ003-005-008-011-012-014-VTZ005-008-151300-
NORTHERN NEW ENGLAND
  
CITY           SKY/WX    TMP DP  RH WIND       PRES   REMARKS
PORTLAND ME    MOSUNNY   45  41  86 SE3       29.91S                  
6HR MIN TEMP:  38; 6HR MAX TEMP:  45;                                

BANGOR ME      SUNNY     42  36  79 CALM      29.93S                  
CONCORD NH     CLOUDY    45  40  82 E7        29.87F                  
MANCHESTER NH  PTSUNNY   46  39  76 E7        29.86F                  
NASHUA NH      CLOUDY    46  42  86 E6        29.88S                  
PORTSMOUTH NH  PTSUNNY   47  36  64 SE5       29.90S                  
JAFFREY NH     CLOUDY    46  41  82 CALM      29.83F                  
KEENE NH       CLOUDY    47  40  76 SW6       29.83F                  
BURLINGTON VT  CLOUDY    52  43  71 E3        29.75F                  
MT. WASHINGTON NOT AVBL                                               
$$

NYZ052-076-151300-
EASTERN NEW YORK
  
CITY           SKY/WX    TMP DP  RH WIND       PRES   REMARKS
ALBANY         DRIZZLE   50  46  86 SE8       29.75F                  
6HR MIN TEMP:  49; 6HR MAX TEMP:  56; 6HR PCP: TRACE;                

NEW YORK CITY  CLOUDY    50  46  86 NE10      29.77S                  
6HR MIN TEMP:  49; 6HR MAX TEMP:  59; 6HR PCP: TRACE;                

$$
 
ANZALL-151300-
MARINE OBSERVATIONS
  
STATION/POSITION TIME  TEMP    WIND        PRES    VSBY  WAVE
                       AIR SEA DIR/SP/G                  HT/PER
                 (UTC) (F)     (DEG/KT/KT) (MB)    (MI)  (FT/S)
BOSTON BUOY      1140   45 45  130/  8/ 10 1012.7F
BUZZARDS BAY     1100          120/ 12/ 13 1012.5R
NANTUCKET SOUND  1140      47                N/A
MASS BAY-STELLWA 1104   45     140/  8/ 10 1011.6R  1 7/8  4/11
ISLE OF SHOALS   1100   44     130/  7/  7 1012.2R
S OF BLOCK IS    1126      45                N/A           3/11
$$

......................KEY.........................
  SKY/WX - SKY CONDITION/PRESENT WEATHER
  TMP    - TEMPERATURE IN FAHRENHEIT
  DWPT   - DEWPOINT IN FAHRENHEIT
  RH     - RELATIVE HUMIDITY IN PERCENT
  WIND   - DIRECTION AND SPEED IN MPH
  PRES   - MEAN SEA LEVEL PRESSURE IN INCHES OF HG
  WCI    - WIND CHILL INDEX
  VSB    - VISIBILITY IN MILES
  HX     - HEAT INDEX
  TC     - TEMPERATURE IN CELSIUS
  VRB    - VARIABLE WIND DIRECTION
  N/A    - NOT AVAILABLE
  
      

Other recent Regional Weather Roundups

Fri Apr 16, 9:04am

Fri Apr 16, 8:04am

Fri Apr 16, 7:04am

Fri Apr 16, 6:04am

Fri Apr 16, 5:04am

Fri Apr 16, 4:04am

Fri Apr 16, 3:04am

Fri Apr 16, 2:04am

Fri Apr 16, 1:04am

Fri Apr 16, 12:04am

Thu Apr 15, 11:05pm

Thu Apr 15, 10:04pm

Thu Apr 15, 9:04pm

Thu Apr 15, 8:04pm

Thu Apr 15, 7:05pm

Thu Apr 15, 6:04pm

Thu Apr 15, 5:05pm

Thu Apr 15, 4:04pm

Thu Apr 15, 3:05pm

Thu Apr 15, 2:04pm

Thu Apr 15, 1:05pm

Thu Apr 15, 12:04pm

Thu Apr 15, 11:04am

Thu Apr 15, 10:05am

Thu Apr 15, 9:04am

Thu Apr 15, 7:04am

Thu Apr 15, 6:04am

Thu Apr 15, 5:04am

Thu Apr 15, 4:04am

Thu Apr 15, 3:04am

Thu Apr 15, 2:04am

Thu Apr 15, 1:04am

Thu Apr 15, 12:04am

Wed Apr 14, 11:04pm

Wed Apr 14, 10:04pm

Wed Apr 14, 9:04pm

Wed Apr 14, 8:04pm

Wed Apr 14, 7:04pm

Wed Apr 14, 6:04pm

Wed Apr 14, 5:05pm

Wed Apr 14, 4:04pm

Wed Apr 14, 3:05pm

Wed Apr 14, 2:04pm

Wed Apr 14, 1:05pm

Wed Apr 14, 12:04pm

Wed Apr 14, 11:04am

Wed Apr 14, 10:04am

Wed Apr 14, 9:04am

Wed Apr 14, 8:04am

Wed Apr 14, 7:04am

Wed Apr 14, 6:04am

Wed Apr 14, 5:04am

Wed Apr 14, 4:04am

Wed Apr 14, 3:04am

Wed Apr 14, 2:04am

Wed Apr 14, 1:04am

Wed Apr 14, 12:04am

Tue Apr 13, 11:04pm

Tue Apr 13, 10:05pm

Tue Apr 13, 9:05pm

Tue Apr 13, 8:05pm

Tue Apr 13, 7:04pm

Tue Apr 13, 6:04pm

Tue Apr 13, 5:05pm

Tue Apr 13, 4:04pm

Tue Apr 13, 3:04pm

Tue Apr 13, 2:05pm

Tue Apr 13, 1:04pm

Tue Apr 13, 12:05pm

Tue Apr 13, 11:05am

Tue Apr 13, 10:04am

Tue Apr 13, 9:04am

Tue Apr 13, 8:04am

Tue Apr 13, 7:04am

Tue Apr 13, 6:04am

Tue Apr 13, 5:04am

Tue Apr 13, 4:04am

Tue Apr 13, 3:04am

Tue Apr 13, 2:04am

Tue Apr 13, 1:04am

Tue Apr 13, 12:05am

Mon Apr 12, 11:04pm

Mon Apr 12, 10:04pm

Mon Apr 12, 9:04pm

Mon Apr 12, 8:04pm

Mon Apr 12, 7:05pm

Mon Apr 12, 6:04pm

Mon Apr 12, 5:04pm

Mon Apr 12, 4:04pm

Mon Apr 12, 3:05pm

Mon Apr 12, 2:04pm

Mon Apr 12, 1:05pm

Mon Apr 12, 12:04pm

Mon Apr 12, 11:04am

Mon Apr 12, 10:04am

Mon Apr 12, 9:04am

Mon Apr 12, 8:04am

Mon Apr 12, 7:04am

Mon Apr 12, 6:04am

Mon Apr 12, 5:04am

Mon Apr 12, 4:04am

Mon Apr 12, 3:04am

Mon Apr 12, 2:04am

Mon Apr 12, 1:05am

Mon Apr 12, 12:04am

Sun Apr 11, 11:04pm

Sun Apr 11, 10:04pm

Sun Apr 11, 9:04pm

Sun Apr 11, 8:04pm

Sun Apr 11, 7:04pm

Sun Apr 11, 6:05pm

Sun Apr 11, 5:05pm

Sun Apr 11, 4:04pm

Sun Apr 11, 3:05pm

Sun Apr 11, 2:05pm

Sun Apr 11, 1:05pm

Sun Apr 11, 12:04pm

Sun Apr 11, 11:05am

Sun Apr 11, 10:05am

Sun Apr 11, 9:04am

Sun Apr 11, 8:04am

Sun Apr 11, 7:04am

Sun Apr 11, 6:04am

Sun Apr 11, 5:04am

Sun Apr 11, 4:04am

Sun Apr 11, 3:04am

Sun Apr 11, 2:04am

Sun Apr 11, 1:05am

Sun Apr 11, 12:04am

Sat Apr 10, 11:05pm

Sat Apr 10, 10:04pm

Sat Apr 10, 9:04pm

Sat Apr 10, 8:04pm

Sat Apr 10, 7:05pm

Sat Apr 10, 6:04pm

Sat Apr 10, 5:04pm

Sat Apr 10, 4:04pm

Sat Apr 10, 3:04pm

Sat Apr 10, 2:05pm

Sat Apr 10, 1:04pm

Sat Apr 10, 12:04pm

Sat Apr 10, 11:04am

Sat Apr 10, 10:04am

Sat Apr 10, 9:04am

Sat Apr 10, 8:04am

Sat Apr 10, 7:04am

Sat Apr 10, 6:04am

Sat Apr 10, 5:04am

Sat Apr 10, 4:04am

Sat Apr 10, 3:04am

Sat Apr 10, 2:04am

Sat Apr 10, 1:05am

Sat Apr 10, 12:04am

Fri Apr 9, 11:04pm

Fri Apr 9, 10:05pm

Fri Apr 9, 9:04pm

Fri Apr 9, 8:05pm

Fri Apr 9, 7:05pm

Fri Apr 9, 6:04pm

Fri Apr 9, 5:04pm

Fri Apr 9, 4:05pm

Fri Apr 9, 3:05pm

Fri Apr 9, 2:04pm

Fri Apr 9, 1:04pm

Fri Apr 9, 12:04pm

Fri Apr 9, 11:05am

Fri Apr 9, 10:04am

Meta data:

ID: 738b6261-d3ef-4d00-a574-258417048021
Link: https://api.weather.gov/products/738b6261-d3ef-4d00-a574-258417048021